Theta_e
337 337 336 335 334 335 335 334 334 335 337 336 338 337 336 336 336 337 337 338 338 337 341 339 338 339 339 338 340 341 342 345 348 350 351 353 353 354 358 361 360 361 361 360 358 358 359 358 357 358 359 359 359 359 358 356 360 358 355 355 352 360 361 362 361 361 361 360 360 359 359 360 361 362 361 361 360 358 359 360 358 359 358 358 359
335 336 335 334 333 333 333 333 333 333 334 334 336 337 335 334 335 336 336 336 337 337 340 337 338 338 338 339 339 339 339 339 342 344 348 351 352 353 357 359 360 360 358 359 357 357 357 356 356 359 358 359 360 358 359 359 356 359 357 355 355 357 362 362 361 361 361 360 361 360 359 359 360 361 361 360 361 359 358 359 360 359 356 356 359
334 333 333 332 332 331 330 331 331 332 333 333 335 335 334 333 334 335 336 336 336 336 337 337 337 336 338 337 337 339 339 339 339 341 345 349 352 352 354 357 359 360 356 358 359 358 358 359 356 357 358 357 358 358 359 359 359 358 358 355 354 356 361 362 362 361 360 360 360 360 360 360 360 360 361 360 360 360 359 360 359 359 357 358 359
333 333 332 330 329 329 329 329 329 330 332 332 332 333 334 334 335 337 336 336 335 336 338 337 335 335 337 337 338 339 339 339 344 349 351 353 352 352 352 353 356 356 358 357 357 356 357 359 360 359 358 357 357 358 356 358 359 358 357 357 357 357 360 362 363 361 360 360 360 361 359 359 360 360 360 361 360 360 359 359 359 358 358 359 359
330 331 332 328 328 327 327 330 329 330 330 331 331 332 332 333 334 336 336 335 334 334 336 335 334 336 337 338 339 340 341 345 348 350 350 350 350 351 350 352 352 353 354 355 355 355 356 358 358 358 359 356 357 357 357 356 358 360 358 358 358 358 357 360 361 361 361 361 360 360 359 357 360 359 359 360 360 360 359 359 359 359 359 359 359
330 328 329 327 326 326 326 326 328 329 329 330 329 330 331 332 334 332 334 332 331 332 333 332 334 336 338 340 340 343 345 347 348 348 348 348 348 349 350 350 350 350 350 352 354 355 356 357 357 358 358 357 355 357 357 357 356 358 360 360 358 355 355 359 359 360 359 361 360 357 359 358 360 359 360 359 361 359 360 358 359 357 358 358 358
330 329 327 326 325 324 325 326 328 329 327 328 329 330 331 332 334 331 330 328 329 329 329 330 333 336 339 342 344 347 347 347 348 348 347 347 349 349 349 349 349 350 351 351 351 352 355 357 356 356 356 357 356 356 358 358 357 357 359 358 359 357 356 355 360 360 360 360 360 360 359 359 358 360 361 360 359 359 356 357 358 356 358 359 359
330 329 327 325 324 324 324 326 328 327 326 327 330 329 330 331 332 332 328 327 327 325 327 328 332 335 338 342 344 347 345 347 347 345 345 345 347 348 348 349 350 351 351 349 349 350 354 355 355 355 355 355 355 355 357 358 358 357 355 359 358 358 356 354 357 360 359 361 358 360 359 359 358 360 357 360 359 357 355 357 357 358 358 358 359
330 328 326 325 324 324 324 325 328 326 326 327 328 330 329 329 329 332 329 326 324 322 324 326 330 334 337 340 340 344 346 346 347 346 347 344 344 347 348 348 350 349 348 349 349 349 351 355 354 355 355 354 354 354 353 354 354 356 355 355 359 358 355 355 355 358 360 358 358 356 359 359 359 360 360 356 357 357 356 355 355 357 356 359 358
326 327 326 327 324 324 324 325 328 326 326 326 327 329 328 328 327 329 329 326 322 321 321 324 330 333 337 336 340 338 342 346 347 348 345 342 344 346 347 347 348 347 348 348 349 349 349 352 353 353 354 355 355 353 352 354 355 356 356 358 357 358 358 357 355 356 359 358 356 358 359 358 357 358 358 356 359 358 358 357 357 356 359 359 358
326 325 326 325 323 324 324 325 328 326 325 325 325 326 326 325 326 327 327 327 322 321 321 324 330 332 336 334 337 338 339 341 342 345 345 344 344 347 347 347 346 347 347 347 348 349 348 350 350 350 351 354 355 354 352 353 354 355 356 357 357 356 357 357 354 354 358 356 357 358 357 357 358 358 359 356 357 356 357 356 357 358 357 357 358
326 325 324 327 323 324 325 326 328 326 325 324 323 323 323 323 323 328 323 323 322 322 321 324 329 331 334 335 335 337 336 336 337 337 339 342 345 346 344 347 346 345 346 346 346 348 348 348 349 349 349 351 353 353 353 353 354 354 356 358 358 359 359 358 358 357 357 356 355 355 351 355 355 356 358 356 356 355 357 357 357 355 355 358 356
329 325 323 326 325 325 325 325 326 327 325 324 324 323 324 323 323 325 324 320 318 320 320 324 326 329 331 332 333 336 336 335 335 335 334 335 342 340 343 344 344 344 344 345 345 346 346 347 348 348 348 348 348 351 352 353 352 354 355 358 358 359 359 359 359 357 358 355 354 355 353 356 356 355 357 357 356 357 358 357 357 357 356 356 356
330 326 326 324 324 325 325 324 325 326 326 325 324 325 320 321 321 320 322 321 318 319 319 322 320 319 323 327 330 332 337 332 331 333 335 332 335 334 336 338 342 344 344 343 344 344 345 346 347 347 347 347 347 347 349 350 351 353 355 356 357 358 359 359 358 359 357 355 353 353 353 355 355 355 355 357 357 356 358 358 356 356 355 356 355
326 329 324 324 324 324 325 325 325 325 320 320 320 319 319 319 320 320 317 318 320 320 319 320 316 319 325 327 323 322 330 328 328 330 334 333 330 332 334 331 336 342 343 341 341 342 344 345 345 345 347 347 347 348 349 350 351 353 354 355 356 357 358 358 358 358 358 357 354 353 356 355 356 354 355 358 357 357 357 357 356 356 356 354 355
325 328 325 324 324 324 325 324 324 325 320 319 318 319 318 318 318 321 320 315 315 316 321 320 318 320 319 319 321 319 317 320 321 327 332 332 327 328 332 329 331 338 342 339 339 341 343 345 344 344 344 345 347 348 348 350 351 352 353 354 355 356 356 357 358 359 357 357 355 356 355 354 355 353 355 356 357 357 356 356 356 356 355 353 354
324 326 329 323 324 324 324 323 323 323 322 319 318 317 318 318 318 319 319 316 314 314 317 320 319 321 321 320 318 316 315 320 319 324 328 330 327 326 329 328 328 335 338 340 341 340 342 342 343 343 344 344 344 346 347 348 348 349 350 352 354 355 355 356 357 358 358 358 357 355 354 353 353 353 355 356 356 356 356 355 356 356 355 357 356
323 325 327 326 323 323 323 322 321 322 322 319 318 317 318 318 317 318 318 319 315 313 313 318 319 320 319 321 324 317 316 319 317 314 324 327 325 324 326 326 328 330 334 337 339 340 342 342 343 343 343 343 344 345 345 347 349 350 349 349 351 353 353 354 355 356 357 359 358 356 355 354 355 356 355 356 356 355 356 356 356 356 355 353 354
323 323 325 326 321 322 322 321 322 321 322 318 317 316 317 318 319 317 318 320 316 313 312 313 317 318 319 319 321 320 320 318 314 317 312 318 322 322 324 325 326 329 330 332 337 339 340 341 342 343 342 343 344 344 345 347 349 350 350 350 352 353 352 353 355 356 356 357 358 357 357 356 356 356 355 355 351 353 356 354 354 356 356 352 353
321 322 323 326 324 320 321 321 320 322 321 316 316 316 317 318 320 318 319 319 316 314 313 313 313 314 318 317 318 319 318 318 318 317 316 311 314 320 324 324 325 329 330 331 333 338 339 339 341 343 343 343 343 344 345 346 348 349 349 350 350 351 351 352 354 355 356 356 355 356 357 356 356 356 355 355 353 355 354 354 355 353 354 353 351
321 321 321 322 326 322 320 320 321 321 321 317 316 316 316 316 316 316 315 316 319 317 315 314 314 313 315 315 316 317 318 318 318 318 316 313 313 314 316 322 324 327 327 331 332 337 340 339 341 342 343 343 343 343 345 346 347 350 349 351 351 350 350 351 352 353 355 356 356 355 356 356 356 355 355 354 355 355 355 354 354 354 354 350 351
321 320 319 319 321 322 320 320 320 323 322 316 316 316 316 316 316 317 316 316 316 318 316 315 315 315 314 315 315 317 317 317 317 316 315 315 312 313 315 316 316 322 328 328 331 335 339 338 339 340 341 343 344 344 345 345 347 348 350 350 348 351 351 351 352 352 354 355 355 356 354 353 355 356 355 355 355 356 355 355 356 356 354 353 353
319 319 319 319 319 323 320 321 322 323 320 316 316 315 316 316 315 316 315 315 315 315 316 316 316 316 314 315 314 314 314 314 315 316 315 314 314 315 316 318 318 318 326 329 332 334 337 339 338 338 339 342 344 345 345 346 349 345 350 352 352 352 351 350 350 352 352 352 355 354 354 354 355 355 355 355 355 355 354 356 355 356 355 354 353
318 318 318 319 321 317 320 318 322 319 317 317 318 317 316 316 315 315 315 315 316 316 314 314 314 315 314 314 314 315 315 316 317 317 317 316 315 314 315 317 318 320 325 327 332 332 335 335 338 339 338 340 342 344 345 345 347 347 347 349 350 351 351 351 351 350 351 352 353 354 353 354 354 354 355 354 355 355 355 356 356 356 355 354 353
317 317 317 319 321 318 317 316 317 319 321 319 318 318 317 317 316 314 314 314 314 314 314 313 314 313 312 314 314 315 315 316 317 317 318 318 317 314 316 317 315 317 322 325 326 333 336 332 336 338 337 337 338 341 344 344 346 345 348 347 349 348 350 350 351 350 351 350 351 354 355 354 354 354 352 354 355 354 354 356 356 356 355 354 354
317 317 317 320 320 320 318 317 317 317 321 320 320 319 319 318 316 316 315 315 315 314 314 314 314 313 313 314 313 313 314 315 315 316 316 317 316 314 314 316 317 317 321 324 326 326 328 331 333 337 335 335 336 339 342 342 345 347 349 347 345 348 348 348 350 350 351 351 349 351 353 355 355 355 355 354 354 355 354 356 357 357 356 355 355
317 320 321 317 319 320 321 317 318 317 319 317 317 317 317 318 319 317 318 316 315 315 313 313 313 313 313 313 315 312 313 314 315 314 316 316 316 316 316 313 315 317 318 321 322 326 322 328 332 335 332 334 335 336 338 340 342 345 345 343 344 346 345 345 347 348 349 349 350 350 351 353 353 355 356 356 356 356 354 355 357 355 356 357 355
320 318 319 318 317 316 318 317 317 317 319 318 317 317 317 319 316 315 315 318 315 315 313 313 313 313 312 313 313 312 313 313 314 314 315 316 316 318 318 316 313 312 315 315 319 323 325 323 332 333 330 332 332 333 334 334 340 340 341 341 342 343 340 342 343 344 347 348 348 348 349 350 352 354 354 355 356 355 354 355 357 357 357 357 356
321 322 317 318 320 317 317 317 317 317 317 318 316 316 316 316 315 316 315 315 318 314 315 313 313 313 313 313 313 314 313 315 314 316 315 316 316 317 319 317 316 313 311 312 315 316 321 323 322 328 329 330 327 331 330 331 338 336 335 336 339 342 339 339 339 339 341 344 347 346 347 347 347 351 353 354 355 355 355 355 357 357 357 357 356
321 321 317 317 318 321 317 317 317 318 317 317 316 316 316 316 316 316 316 315 314 314 316 314 313 314 315 314 313 313 314 313 314 315 315 315 315 315 316 318 319 315 314 311 313 318 319 323 326 323 327 327 325 326 328 328 335 333 332 333 334 337 336 337 337 337 338 340 342 344 345 344 345 347 351 353 354 355 355 355 356 356 355 352 352
320 317 317 317 317 317 317 317 317 317 317 317 318 317 316 314 316 314 315 314 313 313 313 314 313 313 313 313 313 313 314 313 313 313 314 315 315 316 315 317 318 317 317 315 312 318 321 319 323 325 324 324 321 323 326 326 329 330 329 330 332 334 334 335 336 336 337 338 340 343 344 345 345 347 349 352 353 353 354 354 355 355 355 353 353
315 316 316 316 316 316 316 316 316 316 317 317 317 316 316 315 313 312 313 314 313 313 313 312 312 313 313 312 313 313 314 313 314 313 313 314 315 315 315 316 317 317 318 316 313 315 321 321 321 323 323 323 319 318 322 324 325 329 327 327 329 330 331 332 333 334 336 336 338 342 343 343 344 345 348 350 352 353 353 353 354 355 352 352 352
316 315 316 315 315 315 315 318 315 316 316 316 317 316 316 314 315 313 312 313 313 312 315 313 312 313 314 313 313 313 314 312 312 312 311 312 314 315 316 315 314 316 317 317 315 316 321 324 321 320 322 322 317 318 318 321 322 324 326 326 327 327 328 329 330 332 334 335 336 340 342 341 341 343 345 348 350 353 353 354 353 353 352 352 352
316 315 314 315 315 315 316 314 315 315 316 316 316 316 315 314 313 312 311 312 313 312 312 313 313 313 312 313 312 312 313 312 312 311 310 311 313 315 315 315 314 315 319 317 317 316 316 320 320 321 319 321 318 319 317 318 320 323 323 324 326 327 327 328 328 330 332 335 335 338 341 341 339 340 342 344 347 349 351 352 352 350 349 349 349
320 316 315 314 314 314 315 314 314 315 315 316 316 316 316 314 313 312 311 311 312 312 312 312 313 313 313 314 312 313 313 311 311 311 311 311 313 315 315 315 314 315 318 319 317 316 316 317 319 318 318 318 317 316 318 319 321 322 321 321 323 326 327 328 327 329 331 333 334 336 340 340 339 338 339 342 344 345 346 349 348 346 345 342 341
317 320 317 315 315 314 314 314 314 314 315 315 316 317 316 316 315 314 312 311 311 311 311 311 314 314 314 313 313 313 312 311 312 312 312 313 313 315 315 315 315 315 317 319 319 317 316 314 317 316 316 316 316 318 319 319 319 319 320 321 324 325 326 326 327 328 330 332 333 334 338 340 339 337 337 339 340 343 345 344 342 342 341 339 338
318 319 321 320 315 315 315 314 314 315 315 315 315 316 317 317 316 316 315 313 312 311 311 311 316 313 315 314 314 313 312 310 312 312 312 313 314 316 316 316 316 316 316 317 317 317 316 314 314 316 316 316 316 318 319 316 317 319 320 320 320 323 324 326 327 329 329 331 332 333 335 340 339 337 337 338 338 338 339 339 340 339 338 338 336
318 317 317 316 324 315 315 315 315 315 315 315 315 315 316 317 317 317 317 315 313 312 311 310 310 312 313 314 314 314 312 310 312 314 314 313 315 316 316 317 317 316 316 315 316 316 314 314 314 313 315 313 314 316 318 318 316 315 316 318 321 322 323 323 325 327 329 330 331 332 334 339 339 335 335 336 337 337 337 337 337 339 339 339 335
317 318 317 316 322 316 316 315 315 315 315 316 315 315 315 315 317 318 319 318 315 312 312 311 311 312 312 314 315 315 313 313 313 315 315 316 316 317 319 317 318 316 314 314 314 313 313 312 312 312 312 314 313 312 316 318 317 316 314 314 316 321 322 322 322 326 328 329 331 333 334 337 340 339 332 331 332 332 334 335 336 338 339 339 335
318 317 317 317 317 321 318 317 318 319 317 316 316 317 317 316 318 318 317 321 317 314 313 312 312 312 312 313 314 315 315 316 318 316 317 318 319 318 320 319 320 315 313 313 313 312 312 310 310 309 311 311 313 313 316 317 315 316 316 313 313 316 319 321 323 323 327 328 328 330 333 335 340 340 335 334 335 336 337 334 337 339 341 341 337
325 320 319 318 317 317 318 317 317 318 318 317 317 318 318 318 317 318 318 318 317 316 314 313 311 312 311 312 313 316 316 316 317 316 318 320 320 320 319 320 318 315 315 314 314 313 313 311 311 311 310 311 311 311 311 312 312 312 315 315 315 318 319 321 324 327 327 326 327 329 332 332 336 338 337 335 335 336 337 338 339 341 342 341 338
319 324 321 321 318 317 316 316 316 317 317 316 323 326 328 320 318 318 317 319 319 317 316 314 312 313 313 312 313 315 316 317 317 317 318 320 322 321 319 318 317 318 316 316 316 314 313 312 310 309 310 309 309 311 311 312 315 316 316 316 314 316 320 321 324 326 328 326 326 328 331 333 333 337 336 333 333 333 332 333 337 341 340 338 335
318 322 321 318 319 318 317 316 316 316 317 317 325 325 326 326 322 317 319 319 319 318 316 313 313 315 314 313 312 313 315 317 317 317 317 319 321 321 321 322 321 320 319 317 317 316 314 313 311 311 310 310 311 312 312 313 315 316 316 316 316 318 317 316 315 322 330 326 325 327 330 332 332 334 335 333 331 331 330 330 329 337 338 336 334
320 322 319 319 318 318 319 319 318 318 319 327 327 327 324 323 326 323 318 318 318 319 318 313 312 314 313 312 313 311 311 316 317 313 312 317 319 320 320 320 322 322 321 320 318 317 316 314 313 313 311 312 312 313 313 315 315 316 318 318 317 316 317 317 318 317 324 328 325 326 328 329 331 335 334 334 333 331 330 329 329 332 336 335 334
322 320 319 318 318 318 319 319 320 320 321 326 327 328 327 325 325 326 317 318 319 319 317 314 313 314 313 313 312 310 307 315 315 312 309 309 315 318 318 318 318 320 318 320 323 321 319 316 314 314 314 313 313 315 316 317 319 317 318 317 317 317 318 319 320 320 324 328 326 326 325 327 329 331 330 334 335 332 330 329 329 330 332 335 334
319 319 318 318 318 318 318 319 320 320 320 326 328 329 329 327 327 326 316 317 318 317 317 313 314 315 314 313 311 310 308 310 312 314 310 309 310 311 311 311 311 313 316 319 321 323 323 319 317 315 317 318 317 319 322 321 319 318 316 316 318 317 317 318 322 324 327 328 325 324 325 325 326 329 329 330 335 335 331 325 325 328 328 330 333
318 318 318 318 320 325 324 322 321 322 321 328 329 329 330 329 328 330 315 318 318 317 314 313 314 316 314 311 313 310 309 309 314 317 313 309 310 311 311 310 311 311 311 314 316 319 321 321 320 319 319 321 322 323 324 323 321 320 320 319 319 319 320 322 325 326 325 327 327 327 321 324 326 327 329 330 333 335 337 327 325 327 327 327 327
319 319 320 320 320 320 320 320 319 319 320 324 326 327 328 328 329 326 318 319 317 315 314 314 314 313 311 311 313 312 310 309 316 316 317 313 311 311 311 310 311 311 312 316 319 321 323 321 321 321 321 321 323 322 324 325 322 321 319 320 319 319 320 318 317 320 321 323 327 324 322 323 326 324 326 332 333 332 336 337 331 328 327 326 325
318 318 319 319 320 320 321 323 321 321 320 323 323 325 326 327 328 322 319 318 317 314 314 313 313 312 312 312 311 312 311 310 315 318 318 314 311 311 310 310 311 311 312 313 317 320 322 321 321 321 321 322 322 322 321 325 324 321 319 316 313 315 317 314 315 317 318 321 325 326 324 322 324 324 325 330 332 331 332 335 336 330 325 324 324
318 318 318 318 319 321 323 323 322 321 323 327 327 324 324 325 328 322 318 316 315 315 314 314 313 313 312 317 318 311 313 313 316 318 319 318 311 311 311 310 311 310 311 312 313 317 321 320 319 319 321 320 321 321 321 323 324 322 316 311 312 315 314 314 313 315 318 321 323 327 324 320 324 325 325 327 332 330 330 333 335 333 329 326 323
319 318 323 321 321 321 321 321 327 329 325 325 323 322 323 325 327 323 318 317 316 316 314 314 314 313 313 316 318 320 318 319 320 319 318 317 313 312 312 311 310 310 311 311 314 317 319 316 315 317 319 317 317 318 320 323 323 322 318 315 316 314 314 314 315 316 315 316 322 329 321 320 322 323 324 323 322 328 331 332 333 333 333 333 333
Wind_Speed
5 4 3 5 4 4 4 4 4 5 4 4 4 5 5 5 5 5 4 5 5 5 5 5 4 3 3 4 3 3 4 4 4 4 4 5 7 9 12 12 14 14 14 13 14 16 17 17 17 20 21 21 21 22 23 24 20 21 22 22 22 22 21 21 21 21 21 21 21 20 19 20 19 18 18 19 18 18 18 17 17 14 13 14 14
4 4 4 4 4 4 4 4 4 4 4 5 4 4 4 5 5 5 5 5 5 5 4 5 5 4 4 4 5 4 3 4 4 3 3 3 5 6 9 9 11 12 13 13 14 16 16 16 17 20 21 22 23 23 26 24 21 21 23 22 22 23 21 21 21 20 20 20 20 20 20 21 21 19 18 19 20 20 20 18 17 17 15 15 14
4 4 4 4 4 4 4 3 4 5 4 4 4 4 3 3 4 4 5 5 5 4 4 5 5 4 4 4 4 4 4 3 3 3 3 2 2 4 5 9 9 10 10 14 15 16 15 15 17 16 17 20 23 24 26 26 23 22 22 23 22 24 21 20 19 19 20 20 21 22 22 21 20 20 19 19 20 21 21 18 18 18 17 17 16
5 4 4 5 5 4 4 5 5 5 4 4 5 4 3 3 3 4 3 3 4 4 4 4 5 4 4 4 4 3 3 3 3 2 2 2 3 2 3 5 7 9 9 11 13 16 17 17 16 14 16 19 21 22 26 28 26 24 21 23 24 23 20 20 19 16 16 20 21 20 20 21 19 20 20 19 20 18 18 19 19 20 19 17 17
5 4 4 4 4 5 5 5 5 5 5 5 5 5 5 6 6 5 5 5 5 6 4 3 4 5 4 4 3 3 2 1 2 4 5 6 5 4 4 4 4 6 9 11 12 14 16 17 16 16 15 16 20 21 21 26 26 23 24 24 18 16 20 21 20 19 19 18 18 17 20 21 19 20 21 20 20 19 19 19 19 19 18 17 17
4 4 4 4 5 5 5 6 5 6 5 5 5 5 5 6 6 5 6 5 6 5 5 5 4 4 4 4 3 3 2 3 4 6 5 6 5 5 5 5 5 5 5 9 11 13 15 16 15 14 15 14 16 19 21 24 26 25 23 21 17 18 20 21 19 19 19 19 17 19 19 21 19 21 19 19 17 20 19 20 19 19 19 17 18
4 4 5 5 5 5 6 5 5 5 5 5 4 4 5 5 5 7 6 6 5 5 5 4 5 5 5 4 4 3 3 5 5 5 5 4 4 5 6 6 5 4 4 6 8 11 14 15 14 13 12 13 13 15 20 24 26 25 21 21 21 21 22 22 19 20 21 20 20 18 19 20 19 20 19 18 17 17 15 18 19 19 19 18 17
5 4 5 5 5 5 5 5 6 4 5 5 5 7 5 5 5 5 6 6 6 7 4 5 5 5 5 4 4 4 4 5 5 4 4 4 4 6 6 6 6 5 6 5 6 8 13 13 13 12 12 10 10 10 15 22 24 22 22 19 20 18 14 17 20 18 19 19 21 20 19 21 21 21 22 19 18 17 19 21 20 20 18 17 16
5 5 5 5 5 5 5 5 5 5 5 6 6 5 5 5 6 5 4 5 6 7 6 5 5 5 4 5 5 4 4 5 5 5 5 5 6 5 5 6 6 7 6 6 6 6 10 14 13 14 14 10 8 6 7 13 18 20 19 21 19 19 18 21 23 17 15 14 19 20 19 19 20 20 18 20 21 19 21 20 21 21 19 18 18
6 5 5 4 4 5 5 6 5 5 6 6 6 5 5 5 6 6 6 6 7 7 7 6 4 4 4 4 5 5 5 5 5 5 5 6 3 5 6 5 7 7 7 7 7 7 7 9 12 12 14 13 8 4 7 11 16 19 22 21 20 19 20 20 20 16 15 16 17 18 19 19 21 22 19 21 20 19 20 20 20 20 19 18 19
6 6 6 6 6 6 6 6 5 6 7 7 7 7 7 6 6 7 5 5 5 5 5 5 3 4 3 4 4 5 4 6 5 5 5 7 6 6 5 7 7 7 7 7 7 7 8 7 7 7 8 14 14 8 7 11 13 15 18 19 17 18 18 18 17 18 16 16 16 18 18 19 20 22 22 22 20 21 22 21 20 17 16 20 19
6 6 6 6 6 6 6 6 6 6 7 8 7 6 7 8 7 6 8 6 6 7 7 6 3 2 3 4 3 4 6 5 6 7 5 6 6 6 8 6 7 8 8 7 7 7 7 7 6 6 7 10 14 13 8 6 11 13 17 17 19 20 21 21 18 17 16 17 16 17 18 21 20 22 22 22 22 21 22 22 19 19 21 20 19
5 6 7 6 5 5 6 7 6 6 6 6 5 7 6 6 5 4 7 8 8 9 9 4 4 3 4 4 4 3 4 5 6 6 6 5 5 6 5 6 6 7 7 7 8 8 8 8 7 7 6 6 8 11 12 10 6 11 15 17 19 21 22 21 20 18 16 16 16 17 21 20 22 21 21 22 21 22 22 22 21 20 20 19 21
5 5 6 6 6 6 6 6 6 5 5 5 7 7 8 8 6 6 5 6 6 8 9 6 5 2 3 4 4 5 2 4 5 5 5 6 6 6 6 6 7 6 6 5 7 8 8 7 7 7 7 7 7 6 6 7 6 7 10 15 19 21 21 21 21 20 18 18 18 21 21 22 20 20 21 20 21 21 22 21 22 22 22 22 20
6 6 6 6 6 6 6 5 7 5 7 8 7 8 7 7 7 5 6 5 4 6 9 7 3 3 2 1 3 4 4 6 4 5 5 5 6 6 6 6 7 6 6 5 6 8 8 8 8 8 7 7 7 6 6 5 6 9 9 11 15 19 21 21 20 21 21 22 23 23 22 20 19 20 22 20 21 20 22 21 22 22 22 18 21
6 6 5 6 6 6 5 6 6 6 5 7 7 7 7 7 7 6 5 7 6 6 6 7 6 4 3 2 2 1 3 4 6 5 3 3 7 6 6 6 7 7 5 6 6 6 8 8 10 9 9 8 7 7 7 5 7 8 10 12 13 15 18 20 23 23 22 22 23 21 17 18 21 20 19 20 21 22 23 22 22 22 21 22 24
6 6 5 6 6 6 6 5 6 6 5 6 6 5 5 5 6 6 7 4 6 5 6 6 9 6 2 2 3 3 1 4 6 4 4 4 7 8 7 8 8 7 6 5 6 6 6 8 9 9 10 9 9 8 7 7 5 5 6 10 12 13 15 20 23 24 23 23 24 23 19 21 22 18 18 21 22 22 23 23 23 24 23 22 22
5 5 6 5 6 6 6 6 6 6 6 5 6 6 8 7 6 4 7 6 4 7 7 6 5 7 7 4 2 1 3 4 3 5 4 1 4 7 6 9 6 6 6 6 6 6 6 6 9 9 9 9 9 9 8 7 7 4 5 6 11 13 13 17 22 23 25 24 25 23 22 23 24 20 19 21 23 23 22 23 22 22 22 22 24
5 5 6 5 6 6 6 6 5 5 5 7 7 6 5 5 5 7 5 5 7 7 7 6 4 6 6 5 5 4 2 3 3 3 5 5 4 6 7 9 8 6 6 6 6 6 6 6 7 7 9 8 9 8 7 8 11 9 8 9 11 12 12 13 17 23 24 24 24 24 23 23 22 22 21 21 19 22 22 21 22 22 21 21 24
5 6 6 5 5 5 5 6 6 6 5 5 5 4 4 5 5 5 6 5 6 6 6 6 5 5 5 6 5 4 4 5 3 1 1 5 8 8 5 9 8 5 5 6 7 6 6 6 7 6 7 8 8 8 9 10 9 8 6 9 9 10 11 12 14 19 24 25 25 24 23 22 23 22 22 22 24 22 19 21 20 19 22 22 23
5 6 6 6 5 5 5 6 6 6 5 6 6 6 7 7 8 7 6 6 5 4 6 6 5 5 4 6 5 5 4 4 5 4 3 4 4 5 8 8 7 6 7 6 6 5 5 5 6 6 5 6 8 9 9 10 9 7 9 16 12 9 9 10 13 17 21 25 24 25 23 22 22 23 24 22 21 22 21 21 23 23 24 21 24
5 6 6 6 6 5 5 6 6 5 5 5 6 7 6 6 5 5 5 7 5 5 6 4 4 4 4 3 6 4 5 5 6 6 2 2 2 6 6 7 7 6 5 7 8 6 5 5 6 6 6 5 6 8 9 10 9 9 11 15 15 13 9 9 11 13 17 20 22 22 21 22 22 22 23 22 22 22 23 23 24 24 22 22 21
5 6 6 6 6 5 5 5 5 5 5 6 5 5 4 5 5 7 8 7 5 6 6 5 4 5 6 5 4 4 3 4 4 3 2 3 5 4 6 5 6 7 5 7 6 6 5 5 6 6 6 6 5 6 8 8 9 14 20 20 19 18 15 11 8 12 13 17 21 22 22 24 22 23 23 22 22 23 23 23 23 22 22 22 21
5 6 6 5 5 5 5 5 6 6 5 4 5 4 4 5 6 6 6 6 6 5 6 6 6 5 6 4 4 2 3 3 2 2 2 3 4 5 5 7 5 2 5 7 5 6 5 6 5 6 6 6 7 6 7 8 9 19 13 19 20 21 19 14 11 8 9 10 18 22 25 24 23 21 22 21 22 23 24 23 22 22 21 23 23
4 5 5 5 4 5 5 6 6 5 6 6 5 5 5 5 5 6 6 6 5 6 6 5 5 5 4 3 2 4 4 2 2 2 2 1 4 6 7 5 4 5 4 4 3 5 3 6 5 6 7 7 7 7 6 7 6 11 17 10 19 19 21 19 17 12 9 11 11 18 23 24 22 22 21 21 20 22 23 24 24 22 23 23 22
3 3 3 3 4 3 4 5 4 5 5 5 5 5 5 5 5 6 6 5 5 6 6 5 5 5 3 4 5 4 4 4 4 3 4 4 4 6 7 6 3 4 3 3 3 4 6 7 6 5 9 8 7 7 7 8 8 18 17 12 14 18 20 20 20 18 15 11 9 11 17 22 23 21 21 22 25 25 25 25 25 24 23 24 25
3 3 2 4 4 5 5 5 5 5 5 5 4 4 5 5 5 5 5 5 5 5 5 6 6 7 6 5 4 5 4 4 4 5 3 3 3 3 6 8 6 3 5 3 3 4 6 4 5 5 8 8 7 7 7 7 11 18 16 9 9 16 19 19 19 20 20 16 13 10 11 15 22 22 23 24 24 25 27 26 25 23 24 23 24
3 3 5 5 5 5 5 5 5 5 5 4 4 4 4 5 5 5 6 3 5 6 4 5 5 5 5 4 5 5 4 4 4 4 4 4 3 2 3 5 4 6 6 5 4 2 6 6 4 4 8 8 8 6 9 10 9 15 13 7 8 8 17 17 18 19 19 19 16 12 9 11 14 26 24 25 25 26 25 24 23 23 24 24 25
3 3 4 5 5 5 5 5 6 5 5 5 5 4 3 4 4 5 5 4 4 5 4 5 4 4 4 5 4 4 4 4 4 4 4 4 4 4 3 4 3 3 5 5 3 4 6 7 4 4 8 8 8 7 7 6 10 12 7 7 8 7 15 16 18 17 18 17 18 15 13 10 10 11 22 23 23 23 23 24 25 24 23 24 25
3 2 4 5 5 5 5 5 5 6 5 5 5 5 5 5 4 4 3 3 5 4 4 4 5 4 4 5 5 4 5 5 4 4 4 4 5 5 5 4 2 2 1 3 4 2 5 5 2 5 8 9 8 7 6 6 13 11 7 7 7 9 15 15 17 17 17 16 15 16 13 8 7 11 12 22 23 24 25 25 24 23 22 23 25
4 4 4 4 4 4 5 5 5 5 5 5 5 5 5 5 4 4 4 4 5 5 4 4 3 4 5 5 5 5 5 5 5 5 5 5 5 4 4 4 3 2 3 2 3 2 1 4 4 5 7 8 8 7 6 6 9 11 8 7 7 13 15 11 16 17 17 16 13 12 15 13 8 9 13 13 21 23 22 23 23 25 22 23 23
4 4 4 4 3 5 4 4 4 4 5 5 5 5 5 5 4 5 4 4 5 5 4 4 3 4 4 5 5 4 5 5 5 5 5 5 4 4 4 4 3 3 3 2 2 4 2 3 5 6 7 7 6 10 9 7 9 13 8 7 9 12 8 7 12 15 17 17 15 12 12 14 12 8 12 14 15 21 23 23 22 22 24 23 25
3 5 4 3 4 4 4 4 5 4 5 5 4 4 5 5 5 4 4 4 5 4 4 6 5 4 4 4 5 5 5 5 5 5 5 6 5 4 4 4 4 4 4 4 4 5 3 1 4 5 6 7 6 9 9 8 9 9 10 7 8 8 7 7 7 11 15 17 17 14 13 13 11 8 10 13 15 17 22 22 22 21 23 26 26
4 5 4 3 4 4 4 5 4 4 4 5 4 5 5 5 5 3 3 4 5 5 4 5 5 3 3 5 6 6 5 5 5 6 5 5 5 6 5 5 4 4 4 5 4 3 5 4 5 5 6 6 5 6 8 9 9 9 9 8 7 7 7 7 7 7 13 15 16 15 14 12 12 9 5 9 14 14 17 22 22 21 23 23 22
3 4 3 4 5 5 4 4 4 4 5 4 4 4 5 4 4 3 3 3 4 4 5 5 5 4 5 5 6 6 5 6 6 5 5 5 4 5 6 4 5 5 5 5 5 4 6 5 4 6 7 6 6 8 8 6 6 6 8 9 8 7 6 7 7 6 11 15 15 14 13 13 13 13 8 6 10 13 14 17 18 18 22 21 20
4 3 4 5 6 4 4 4 4 4 4 4 4 4 4 3 3 3 3 3 3 3 4 5 5 4 4 5 5 5 5 6 7 6 5 5 4 4 5 5 4 5 4 4 3 3 3 6 6 7 7 6 5 6 5 4 5 7 6 7 7 8 8 7 7 6 9 15 14 13 12 11 13 14 14 6 5 8 9 13 18 18 19 18 16
3 3 3 4 4 4 4 4 3 4 3 3 3 3 3 2 2 2 2 2 3 3 3 4 4 4 4 4 5 5 5 6 6 6 6 7 5 4 5 5 4 4 4 3 4 4 4 5 6 5 6 4 3 4 6 7 7 6 6 7 7 7 9 7 5 5 9 13 13 13 12 9 10 13 14 11 5 4 6 7 13 13 15 15 14
4 3 3 3 2 1 2 2 2 2 2 2 2 2 2 2 1 1 1 2 2 3 3 3 4 4 3 4 4 4 5 5 6 6 6 6 6 5 6 5 4 4 4 5 4 4 4 4 5 6 6 7 6 5 6 6 6 8 9 8 6 7 8 9 7 5 6 6 6 7 9 9 9 9 14 14 8 4 4 7 8 14 17 17 14
5 4 3 2 1 1 1 1 1 0 0 2 1 1 2 2 2 1 2 2 3 2 2 3 3 3 3 3 4 4 5 6 5 6 6 6 5 5 4 4 4 3 4 4 4 5 4 5 5 4 5 4 4 6 7 6 4 1 7 10 10 7 6 7 8 6 6 8 7 10 10 11 12 10 9 11 10 3 2 8 10 11 15 16 16
2 3 4 4 3 2 2 2 2 2 1 2 3 2 2 1 2 2 2 2 3 3 3 3 2 3 3 3 4 4 5 5 5 5 5 6 5 5 5 3 3 4 4 4 4 5 5 5 4 5 4 4 5 4 5 6 8 7 6 6 8 10 10 8 5 5 8 8 7 7 7 8 9 9 9 9 12 6 3 4 9 13 15 16 15
3 2 1 1 3 3 3 3 4 2 3 3 3 3 3 3 1 3 3 3 3 4 3 3 2 3 2 3 4 4 6 9 12 10 10 10 6 5 5 4 4 3 4 4 4 4 5 4 5 3 4 5 5 6 8 7 7 7 7 5 6 7 8 9 7 3 5 8 7 5 5 7 7 9 8 9 8 10 5 2 7 14 17 15 12
2 2 2 1 2 4 4 5 4 4 4 3 4 7 6 3 3 2 3 3 3 3 3 3 3 3 2 3 4 8 9 10 11 13 12 13 12 8 5 3 2 4 3 4 5 4 4 5 4 4 5 5 5 5 5 5 5 6 7 7 8 9 8 9 5 2 6 9 9 6 6 6 6 6 7 8 9 8 6 5 1 7 11 13 13
3 2 2 2 3 3 4 4 5 4 4 4 9 6 4 5 3 3 2 4 3 3 3 3 3 3 2 2 3 5 6 7 8 12 12 13 12 12 12 11 9 6 5 5 5 3 4 4 3 3 3 5 6 5 4 5 5 6 6 6 6 7 9 9 8 8 4 9 10 6 6 7 6 5 6 7 9 9 9 5 11 3 14 14 14
2 2 1 4 4 4 4 4 4 4 5 6 9 9 7 4 3 3 2 2 3 4 3 2 2 2 2 2 2 2 4 5 5 5 9 11 11 11 12 12 13 14 12 8 6 5 6 5 5 5 4 4 6 5 5 6 7 7 6 5 5 6 9 9 7 7 7 8 9 6 5 6 7 6 5 6 7 8 10 10 11 10 10 14 14
1 1 2 2 3 3 4 4 5 5 5 7 8 9 8 5 2 2 2 2 3 4 4 3 2 2 2 2 2 2 3 7 5 4 5 6 9 11 12 12 13 14 13 14 12 8 2 3 3 5 4 5 6 5 6 7 6 5 7 6 6 6 6 7 5 6 7 8 8 4 5 7 7 7 6 7 5 5 8 11 14 13 5 13 13
0 2 2 4 4 4 4 4 5 5 5 7 8 8 9 7 4 3 2 2 2 3 4 3 3 2 1 2 2 3 3 4 4 4 4 5 6 7 7 6 6 9 12 13 14 14 9 3 3 4 5 3 4 5 7 5 5 6 6 6 7 7 9 8 9 7 6 5 8 5 3 7 7 6 7 7 6 5 5 9 14 13 12 2 12
3 3 3 4 4 4 5 4 3 5 5 7 6 8 8 9 5 3 2 1 2 3 3 3 3 2 1 1 0 1 3 4 4 3 3 4 4 5 6 7 6 5 5 6 7 7 6 4 3 3 5 4 3 4 4 3 3 4 4 5 6 6 7 7 6 4 4 4 7 5 5 6 6 5 4 6 7 8 7 8 11 12 13 11 6
1 0 3 2 4 6 5 4 3 5 6 7 6 7 7 8 8 3 3 2 2 2 2 2 3 2 1 1 1 1 2 4 6 5 2 1 4 6 6 6 6 6 5 6 7 8 7 5 5 5 4 6 7 6 7 5 4 5 4 3 2 4 6 7 6 7 6 6 7 7 4 6 6 5 4 4 5 7 7 8 10 11 11 10 10
2 3 4 4 3 4 6 5 4 5 6 7 7 6 6 6 6 4 3 2 1 2 3 3 3 2 2 2 3 3 2 4 6 4 3 3 3 4 4 6 5 5 6 6 11 11 11 11 10 12 11 11 10 10 9 11 5 5 5 6 7 7 6 7 8 7 6 7 7 8 3 5 7 7 6 3 5 5 6 7 7 8 7 8 10
4 5 4 4 4 3 4 6 4 5 6 7 8 7 7 5 6 5 4 3 2 2 3 3 3 3 4 7 5 4 4 4 6 6 5 1 3 3 4 5 6 6 6 6 5 6 10 11 10 12 11 12 11 10 9 10 8 5 5 5 5 4 4 5 6 6 6 4 7 8 3 5 5 5 6 3 2 3 5 5 7 7 7 6 8
5 4 3 3 5 4 4 5 6 6 5 6 9 7 7 5 4 4 4 3 3 3 3 4 3 3 4 5 6 5 5 6 7 5 5 4 3 3 3 4 5 6 5 5 5 6 6 7 7 8 8 10 7 5 6 12 12 7 2 3 3 3 4 5 4 5 5 5 8 9 5 6 7 6 6 4 3 1 3 5 6 6 7 7 7
Wind_Direction
51 29 26 37 13 14 12 13 3 356 347 348 1 346 344 346 347 341 337 341 339 331 334 325 321 312 303 289 270 261 261 261 260 257 249 251 254 266 273 281 286 284 276 271 274 280 285 283 272 266 261 256 246 235 229 233 223 214 215 225 242 219 207 206 208 208 210 211 205 205 205 206 201 202 200 188 186 190 196 199 196 190 196 201 189
52 31 40 24 17 8 16 5 359 348 354 352 346 343 337 339 350 350 345 341 336 328 330 320 319 319 303 293 294 295 290 286 286 283 273 253 262 270 287 295 298 297 294 278 279 276 274 273 267 264 263 257 250 237 228 222 220 216 214 220 231 226 209 208 208 208 208 210 208 199 204 206 203 202 200 194 188 188 196 194 197 188 191 208 192
47 31 28 18 12 11 5 334 3 357 345 336 335 344 328 340 345 336 337 334 327 314 320 315 312 312 308 301 298 305 306 302 295 285 281 271 284 301 308 306 304 307 299 303 295 290 290 284 279 276 273 269 258 245 230 219 214 213 217 219 227 233 210 209 209 210 210 209 210 206 205 203 201 204 200 196 194 191 192 194 195 194 189 197 194
33 26 29 11 8 1 346 2 351 342 347 338 338 345 334 330 336 341 316 325 316 316 315 311 312 308 312 301 299 304 312 311 307 328 335 351 339 335 325 332 333 332 319 299 298 301 296 290 286 279 279 278 268 251 236 223 213 209 211 220 214 228 220 208 204 204 212 217 211 202 207 204 203 205 203 198 194 195 193 197 194 197 194 191 192
32 24 15 11 2 2 358 356 343 337 340 344 338 349 5 6 5 352 349 358 350 342 333 318 314 317 312 313 313 315 322 336 18 26 28 25 21 20 21 8 354 346 332 323 308 297 297 298 296 294 289 279 270 255 234 226 217 207 205 212 213 224 234 215 204 205 208 210 214 207 205 208 203 206 205 201 200 194 193 198 196 197 194 193 191
37 24 16 14 5 5 357 353 347 341 335 350 9 4 9 13 360 356 358 357 350 330 336 337 335 321 336 334 335 348 350 36 37 40 38 28 22 23 16 10 360 344 331 334 325 313 308 301 299 301 298 290 272 257 231 217 218 215 206 200 203 212 238 230 205 200 210 209 206 206 207 208 206 207 205 202 199 192 196 197 198 196 195 196 192
26 28 19 16 12 5 2 349 336 339 348 360 7 15 20 14 360 3 348 358 349 339 344 330 330 338 345 346 358 7 17 38 42 41 35 22 15 15 10 14 359 339 334 337 326 320 312 312 313 310 311 304 287 257 229 212 207 215 213 203 200 207 219 235 215 198 205 204 204 202 203 207 208 205 200 200 196 195 196 208 197 199 196 194 195
21 17 24 17 13 5 353 341 347 348 1 6 21 23 4 8 5 14 359 355 349 347 347 340 338 337 340 356 4 17 22 40 40 40 27 20 16 8 5 14 14 10 7 343 333 326 328 325 328 323 318 315 296 261 226 208 201 206 216 213 206 207 213 235 240 207 205 202 206 199 201 206 208 206 207 201 198 193 199 208 203 201 196 193 195
20 18 28 17 11 7 349 351 351 2 21 24 30 16 17 1 4 9 23 347 352 348 346 347 336 334 338 354 14 13 22 33 37 32 27 15 354 357 1 18 19 19 12 6 359 348 340 339 342 342 339 324 309 268 221 201 203 201 208 221 216 215 213 218 232 220 202 204 211 211 203 205 208 208 204 207 201 196 199 205 209 204 196 193 194
22 13 30 26 18 13 358 5 5 20 36 35 25 16 22 20 6 5 360 6 7 355 342 331 330 330 346 11 5 28 25 29 28 29 42 36 325 18 8 12 20 19 14 11 5 2 359 351 350 348 341 337 332 286 225 214 203 202 212 216 218 218 217 226 229 227 206 204 214 212 209 208 212 208 206 205 200 199 200 201 203 205 197 195 198
22 18 23 23 21 19 22 6 14 30 40 36 23 15 15 13 17 358 6 8 11 354 340 310 318 332 343 5 7 36 36 40 32 27 30 33 21 20 9 17 15 14 14 15 9 6 7 359 354 348 343 342 346 344 230 227 215 212 216 220 222 226 227 234 227 235 219 214 215 220 216 212 210 210 205 206 199 204 201 202 201 201 201 204 200
29 25 27 26 26 20 21 17 20 34 42 37 23 18 14 7 5 2 2 0 18 5 1 345 321 31 350 348 11 10 49 39 42 33 24 13 9 9 14 4 9 9 11 9 9 9 9 8 7 357 356 348 349 346 334 255 231 227 225 224 222 219 221 223 224 226 224 218 219 226 227 218 216 210 206 206 205 203 205 203 198 196 206 205 202
33 30 31 29 31 25 30 25 19 38 45 41 24 27 23 22 357 4 13 10 11 4 2 338 11 355 347 357 344 352 32 43 38 35 27 13 4 10 359 5 3 6 5 4 8 10 15 8 8 9 3 356 352 347 341 336 288 233 233 233 229 225 225 225 223 222 222 220 224 230 218 216 216 216 214 205 200 204 202 200 197 200 202 203 204
29 39 39 35 30 30 31 25 24 27 48 40 38 33 23 23 11 14 11 23 18 3 1 358 30 17 336 338 345 332 352 28 36 17 22 21 9 13 6 0 0 357 357 358 6 10 11 8 5 5 7 4 3 354 343 329 324 308 256 243 237 230 224 221 220 217 216 212 217 227 220 213 216 214 218 212 203 206 205 200 201 203 201 202 205
28 40 42 33 35 37 27 25 31 23 34 34 30 31 25 23 20 22 356 20 19 11 15 28 2 305 241 306 16 347 328 360 1 5 1 17 11 12 3 3 353 353 355 359 1 7 7 5 7 5 3 359 2 2 355 341 313 288 273 257 246 240 234 226 221 218 216 213 208 217 220 216 217 213 216 211 209 206 207 199 202 202 203 198 206
29 39 45 39 37 36 31 36 34 31 39 44 32 27 21 21 15 21 23 23 12 357 12 8 26 351 36 32 332 71 346 353 333 307 337 7 19 1 359 360 345 350 357 6 1 2 4 4 8 8 8 3 356 354 354 349 329 311 286 264 254 245 240 232 221 216 213 213 215 215 210 220 220 212 214 214 212 207 206 201 200 204 200 201 205
31 34 45 44 40 37 40 37 40 29 35 42 35 27 26 25 19 28 35 37 21 355 356 13 24 24 54 24 8 25 12 290 322 278 360 3 4 357 359 358 350 347 351 354 358 3 1 4 4 7 9 8 3 356 346 345 330 317 309 296 281 264 248 237 229 222 214 209 210 211 204 213 220 211 217 215 213 210 206 203 200 202 202 203 202
38 40 42 46 42 36 38 40 35 29 36 38 35 29 19 20 11 20 37 23 73 33 4 1 18 26 33 51 62 63 324 314 5 333 333 9 341 354 352 354 349 340 348 353 357 354 4 1 5 6 6 8 3 356 348 336 331 309 286 269 274 278 272 249 235 229 221 208 208 205 204 208 215 208 214 217 215 212 208 206 203 202 203 206 205
43 40 43 51 49 40 40 42 39 38 33 42 36 25 16 21 17 34 26 38 43 52 26 342 340 35 21 24 50 43 1 9 15 288 343 324 6 354 340 347 344 339 351 349 349 352 356 3 3 3 4 6 5 359 349 342 342 337 323 302 287 274 263 261 241 232 230 224 212 205 203 204 208 206 207 214 223 217 209 204 207 201 199 207 210
48 41 35 40 55 45 42 42 42 32 42 39 35 23 35 29 39 31 38 42 50 54 43 18 35 341 351 23 34 50 42 57 46 359 315 312 330 340 353 351 334 332 349 345 347 348 349 352 359 1 1 3 5 4 355 352 340 342 332 321 302 291 287 268 254 239 232 227 225 212 206 205 207 206 204 203 207 215 212 207 201 204 205 200 209
53 51 39 33 43 47 46 44 41 38 44 38 33 34 37 34 30 34 33 36 37 49 54 21 23 18 348 12 17 24 16 37 28 23 43 345 311 346 325 329 335 333 345 341 339 342 347 347 350 356 355 355 3 0 358 355 348 355 0 4 336 291 284 286 263 244 235 229 223 220 213 202 202 203 204 206 204 209 209 206 203 203 205 199 213
40 48 40 31 36 34 40 40 35 39 45 36 35 36 28 36 30 38 39 50 19 43 57 37 39 32 41 17 36 355 17 15 18 6 13 65 330 315 325 330 330 314 319 345 335 337 341 352 354 353 355 350 355 0 358 359 351 11 13 16 12 13 332 292 279 266 249 236 228 221 214 214 208 201 201 204 208 209 209 207 208 207 201 203 203
37 39 42 31 35 28 30 28 33 33 39 33 28 24 19 21 21 34 34 33 26 41 47 42 42 40 37 35 43 38 42 39 12 359 360 352 334 313 318 319 295 303 316 331 324 332 339 350 2 355 352 344 348 356 359 351 354 13 19 16 20 19 19 11 329 284 267 248 235 227 222 217 209 206 204 204 204 210 210 208 208 206 200 205 199
40 44 28 26 38 28 22 30 26 15 25 29 32 24 21 27 31 37 34 31 25 33 37 35 28 42 42 31 37 35 38 28 346 334 3 5 339 312 323 331 309 267 286 318 310 340 347 351 358 1 354 348 346 348 348 355 354 2 17 13 13 19 17 15 9 8 329 280 249 230 223 220 215 211 207 204 207 207 209 207 205 203 203 204 196
37 48 23 21 38 34 27 28 13 2 6 14 15 24 27 38 38 41 40 35 26 30 33 24 20 32 15 10 33 30 29 352 350 351 352 324 2 345 333 332 300 313 313 332 330 315 349 350 353 4 4 358 354 347 346 354 351 359 20 3 7 13 13 16 19 8 360 2 324 237 222 222 219 215 209 210 210 208 210 208 203 203 204 197 200
83 59 349 360 45 35 49 43 29 15 17 10 14 10 19 28 43 41 36 23 33 36 31 24 35 24 8 14 25 20 5 1 2 5 8 0 3 356 333 334 287 297 303 305 327 353 347 341 354 0 4 3 353 347 349 356 355 14 17 11 1 2 5 8 12 16 16 2 346 329 237 222 217 214 210 207 210 209 212 209 204 202 202 203 201
65 360 43 100 46 27 41 45 24 22 15 19 0 15 18 20 30 40 40 22 34 33 23 23 26 15 20 14 11 22 7 3 359 6 347 358 349 347 359 350 343 327 349 318 319 47 1 304 344 1 6 359 349 349 357 347 12 17 20 8 4 358 5 4 5 8 14 12 5 345 328 242 225 217 210 205 204 205 211 209 205 203 204 203 203
60 54 21 50 70 55 47 44 33 35 24 15 8 13 18 36 28 28 38 7 32 33 20 21 24 12 17 9 21 19 6 4 7 358 352 343 339 338 359 30 11 344 341 335 345 333 17 357 316 13 2 357 345 346 2 4 10 15 14 5 359 359 6 6 6 5 4 10 11 1 335 318 250 223 219 217 210 211 209 208 204 203 203 204 206
83 44 51 56 60 66 57 44 39 42 42 18 15 16 31 59 53 36 33 1 36 30 17 24 11 6 17 20 15 8 4 355 5 6 355 351 346 340 345 19 12 348 340 334 326 335 339 352 339 335 354 349 348 343 352 359 9 15 4 4 356 355 3 1 7 5 6 2 4 10 1 323 310 262 221 224 220 220 217 211 206 205 207 210 207
97 71 68 67 61 59 64 53 41 46 42 32 21 21 30 46 46 54 28 17 43 23 19 14 14 2 10 13 7 7 353 356 357 352 2 353 349 348 343 342 351 21 342 329 311 293 315 331 356 332 339 343 345 344 350 355 6 13 3 1 354 356 360 356 359 360 3 2 358 358 5 348 299 281 257 225 219 216 214 212 206 207 206 213 218
87 79 68 64 69 65 67 63 49 45 43 37 23 28 32 44 31 36 24 38 46 30 10 14 9 12 4 4 358 357 350 345 346 355 359 355 353 346 336 334 344 338 328 288 313 277 277 321 320 332 335 335 348 341 351 357 358 6 5 356 350 356 360 353 352 353 357 359 358 4 359 349 328 274 266 258 228 221 219 217 208 207 208 210 211
97 83 71 67 60 70 59 62 54 46 51 40 34 30 42 47 34 34 15 36 46 25 356 10 9 5 5 358 351 348 344 336 345 349 349 341 345 342 345 342 344 353 327 304 273 295 300 316 319 319 342 338 354 3 352 347 353 2 359 352 350 352 357 343 346 344 350 354 355 358 10 0 339 314 276 254 250 223 217 217 214 208 204 212 206
72 74 65 72 67 64 55 44 42 35 50 47 29 40 52 44 40 45 29 37 40 19 8 7 5 356 357 351 352 346 340 337 337 339 347 342 341 343 349 353 351 344 351 333 321 324 299 307 323 336 334 343 3 8 354 352 353 348 349 351 350 351 346 343 336 337 346 351 348 351 360 7 358 328 302 271 252 245 221 216 214 209 210 206 200
95 92 95 74 67 57 57 39 36 30 34 46 40 43 51 48 38 25 24 18 30 15 14 4 336 347 339 1 356 342 342 330 334 342 343 338 343 344 356 353 344 344 354 357 337 331 324 317 340 345 351 352 345 11 360 345 348 345 346 344 346 347 342 339 339 334 338 345 345 344 352 355 0 345 291 281 255 252 234 217 210 209 214 211 205
88 106 110 87 72 63 58 52 39 37 27 29 24 57 59 59 58 33 16 22 22 360 350 337 332 337 4 1 350 338 340 341 348 338 336 339 338 346 344 351 349 346 354 5 353 342 341 330 331 341 354 344 354 348 349 343 331 331 342 351 341 332 341 339 337 331 332 342 344 342 350 350 351 355 335 268 251 230 243 224 213 212 211 204 190
89 85 86 71 71 73 75 56 48 39 33 21 14 37 60 62 70 46 12 11 5 354 345 339 341 359 3 3 353 341 347 340 340 339 338 331 344 343 344 348 348 349 347 351 8 350 326 333 338 344 344 339 335 332 338 320 335 345 348 331 333 338 337 340 334 328 332 339 341 340 350 355 355 356 353 312 259 227 226 214 206 208 205 189 183
154 98 79 70 73 64 80 73 46 35 35 29 23 15 20 38 64 45 17 5 4 351 346 345 349 357 351 4 342 340 354 342 333 339 335 333 334 337 343 343 347 346 346 354 360 4 352 349 333 335 335 322 313 315 350 350 341 338 342 346 336 331 333 327 325 324 329 341 337 333 338 350 4 1 3 346 275 239 209 218 210 201 180 202 184
168 146 109 72 80 90 104 122 95 59 17 35 37 7 345 346 355 31 6 4 353 345 342 348 349 339 338 339 339 339 347 343 323 322 331 326 317 337 339 338 347 346 348 358 2 2 360 350 340 335 342 352 348 342 342 347 334 343 344 339 337 350 346 339 335 333 338 336 338 331 336 342 4 7 7 9 316 259 207 200 201 190 189 196 192
158 160 142 119 244 161 224 207 198 269 310 332 327 318 322 314 312 339 346 330 339 330 329 337 342 330 342 333 335 334 338 326 314 322 328 327 316 326 322 325 349 348 357 360 354 356 1 346 345 348 334 338 345 331 334 330 297 325 353 346 341 342 343 342 326 323 340 336 332 340 339 344 358 7 9 6 5 291 194 206 194 187 181 183 188
102 154 174 201 228 223 259 271 251 214 224 261 275 261 250 257 287 302 300 298 311 320 321 336 343 346 358 328 328 321 334 320 320 336 342 337 327 322 330 349 5 7 0 352 354 356 352 353 353 343 341 324 332 318 306 330 355 355 12 347 331 334 337 331 315 311 337 343 339 337 340 345 350 0 8 15 17 12 191 174 203 186 180 176 191
91 89 101 335 284 288 292 292 302 291 254 256 242 241 263 251 202 300 313 308 307 308 319 326 336 337 15 340 324 322 5 3 1 4 6 11 1 346 15 37 33 12 1 345 351 349 345 347 346 341 340 342 337 341 343 352 354 332 315 331 317 323 331 333 322 316 345 343 330 331 349 357 345 13 6 18 16 20 13 104 183 189 188 184 167
97 92 82 129 199 252 275 285 292 295 285 280 260 257 224 217 235 249 307 296 296 290 296 319 332 330 49 355 329 1 11 5 2 4 5 12 19 28 43 357 30 22 355 355 350 345 338 341 344 336 346 338 337 338 326 315 318 317 332 346 339 327 337 344 321 347 340 355 346 340 349 1 341 5 19 20 14 18 17 18 292 185 179 174 162
55 31 42 340 269 252 246 261 286 289 278 266 277 289 198 227 176 235 264 301 311 298 274 269 298 313 24 354 330 349 1 350 357 0 358 10 17 22 23 31 47 40 13 5 348 350 344 334 322 332 326 322 324 325 305 315 328 335 323 325 325 336 353 352 343 323 7 356 346 324 348 360 343 359 29 24 20 23 14 351 4 209 164 166 162
101 110 151 270 292 283 263 252 261 268 273 272 273 277 268 255 252 197 262 278 307 300 285 252 238 273 0 15 348 324 335 348 1 351 348 359 13 18 22 21 25 28 25 19 10 359 359 340 341 341 325 326 315 313 329 336 334 329 330 327 332 338 343 344 333 335 313 340 341 335 345 359 343 8 21 26 27 32 25 16 26 20 171 165 166
143 208 224 218 239 244 261 260 259 256 255 272 271 268 267 240 212 179 228 218 283 303 300 257 230 235 30 21 5 2 331 342 342 343 341 346 359 11 16 15 12 12 10 10 16 25 22 347 324 332 351 327 323 324 329 324 316 317 330 334 337 334 330 323 327 314 320 335 343 340 352 3 0 358 7 356 11 27 22 24 34 38 21 174 173
108 283 318 290 291 278 241 235 258 258 254 270 270 270 263 254 227 200 165 214 269 288 286 252 218 217 88 56 15 359 334 324 323 325 350 357 357 4 6 4 357 355 360 0 5 4 12 2 328 325 326 309 304 305 308 315 321 332 334 328 329 336 333 320 308 298 296 327 356 321 346 10 1 353 4 351 344 19 32 22 30 37 30 32 180
211 249 289 302 292 292 292 293 290 283 276 281 279 272 264 251 238 160 140 211 270 286 278 226 226 204 148 161 231 306 312 314 299 327 28 8 358 4 3 358 345 340 323 348 354 349 351 345 333 304 311 314 304 302 295 288 286 301 294 291 305 313 288 288 276 281 302 350 357 351 14 347 2 349 4 349 354 23 31 35 32 35 36 30 46
136 92 272 235 267 281 289 292 290 290 286 284 283 283 271 255 238 175 166 171 261 297 291 239 240 241 188 205 197 259 294 300 296 332 56 61 11 10 0 344 347 338 334 339 342 349 357 353 347 339 336 345 358 348 345 337 336 334 325 293 302 321 329 347 340 337 348 355 11 8 352 357 360 359 329 336 6 23 19 31 30 38 34 28 46
298 278 262 262 277 287 290 288 283 287 287 293 295 289 283 262 244 183 174 167 198 275 261 245 249 259 249 202 230 236 270 279 289 308 312 98 14 24 354 348 337 341 340 338 341 341 347 347 347 348 347 350 355 350 349 347 359 346 337 358 353 341 348 348 342 339 338 338 3 0 327 354 357 359 332 339 13 23 17 22 22 33 35 33 35
241 243 248 269 261 250 258 274 265 269 288 289 301 307 300 279 232 208 196 194 246 248 265 260 249 262 266 266 221 227 261 272 281 293 293 289 20 6 5 350 346 346 334 339 337 334 343 345 346 344 342 344 349 345 348 349 355 16 12 355 333 331 334 334 323 323 307 332 8 349 337 12 328 1 347 327 329 15 17 20 23 22 21 25 36
236 243 248 250 277 273 244 251 282 289 289 290 295 295 290 284 238 191 189 188 244 255 249 262 259 250 274 277 281 252 242 264 278 296 306 313 328 337 345 340 340 327 316 317 318 325 337 339 336 340 334 338 336 337 337 348 355 1 10 325 313 341 321 310 317 322 331 5 8 351 358 0 356 9 2 354 5 316 6 20 23 20 27 26 16